Regional Weather Roundup
Issued by NWS

Home | Current Version | Previous Version | Graphics & Text | Print | Product List | Glossary On
Versions: 1 2 3 4 5 6 7 8 9 10 11 12 13 14 15 16 17 18 19 20 21 22 23 24 25 26 27 28 29 30 31 32 33 34 35 36 37 38 39 40 41 42 43 44 45 46 47 48 49 50
000
ASUS43 KMKX 010600
RWRWI

WISCONSIN REGIONAL WEATHER ROUNDUP
NATIONAL WEATHER SERVICE MILWAUKEE/SULLIVAN WI
100 AM CDT MON SEP 01 2014

NOTE: "FAIR" INDICATES FEW OR NO CLOUDS BELOW 12,000 FEET WITH NO
SIGNIFICANT WEATHER AND/OR OBSTRUCTIONS TO VISIBILITY.

WIZ001-002-006>008-014>016-023>028-010700-
NORTHWEST WISCONSIN

CITY           SKY/WX    TMP DP  RH WIND       PRES   REMARKS
SUPERIOR ARPT  RAIN      62  61  99 W3        29.60F
ASHLAND        CLOUDY    67  65  93 S7        29.63S
6HR MIN TEMP:  64; 6HR MAX TEMP:  76; 6HR PCP:  0.24;

HAYWARD        HVY RAIN  68  66  93 S13G18    29.67R FOG
6HR MIN TEMP:  66; 6HR MAX TEMP:  76; 6HR PCP:  0.71;

SIREN          LGT RAIN  66  65  96 S5        29.65S
RICE LAKE      LGT RAIN  66  64  93 E7        29.66F
6HR MIN TEMP:  66; 6HR MAX TEMP:  78;

LADYSMITH      TSTM      69  64  86 SW10      29.74R
EAU CLAIRE     NOT AVBL
MENOMONIE      RAIN      66  65  96 E3        29.65F
NEW RICHMOND   LGT RAIN  65  65  97 CALM      29.64F
OSCEOLA        LGT RAIN  66  66 100 CALM      29.66F
$$

WIZ003>005-009-010-017-018-010700-
NORTH CENTRAL WISCONSIN

CITY           SKY/WX    TMP DP  RH WIND       PRES   REMARKS
WOODRUFF       MOCLDY    72  67  86 S10G16    29.74S
RHINELANDER    TSTM      68  66  93 S9        29.77F FOG
6HR MIN TEMP:  67; 6HR MAX TEMP:  71; 6HR PCP:  0.05;

EAGLE RIVER    MOCLDY    66  66 100 S8        29.76F
LAND O LAKES   MOCLDY    68  66  91 S9        29.76F
PHILLIPS       RAIN      68  63  84 S13       29.73R
TOMAHAWK       HVY RAIN  67  65  93 CALM      29.77R
MEDFORD        CLOUDY    67  65  94 E6        29.73F
MERRILL        CLOUDY    69  68  98 E3        29.75F
$$

WIZ029-030-035-036-043>047-010700-
CENTRAL WISCONSIN

CITY           SKY/WX    TMP DP  RH WIND       PRES   REMARKS
WAUSAU         CLOUDY    70  67  90 SE7       29.73F
6HR MIN TEMP:  69; 6HR MAX TEMP:  75; 6HR PCP:  0.05;

MOSINEE        MOCLDY    68  68 100 SE8       29.76F
MARSHFIELD     MOCLDY    72  67  84 S12       29.73F
6HR MIN TEMP:  71; 6HR MAX TEMP:  76; 6HR PCP: TRACE;

STEVENS POINT  CLOUDY    71  66  84 SE7       29.76F
WAUPACA        FAIR      72  69  90 SE3       29.78S
WAUTOMA        NOT AVBL
WISC RAPIDS    FAIR      74  67  78 S8        29.75S
6HR MIN TEMP:  73; 6HR MAX TEMP:  77;

CAMP DOUGLAS   NOT AVBL
$$

WIZ011>013-019>022-031-037>040-048>050-010700-
NORTHEAST WISCONSIN

CITY           SKY/WX    TMP DP  RH WIND       PRES   REMARKS
ANTIGO         CLOUDY    66  66  98 S6        29.79F FOG
STURGEON BAY   FAIR      66  64  94 S9        29.81F
6HR MIN TEMP:  64; 6HR MAX TEMP:  66;

GREEN BAY      FAIR      68  66  93 SE8       29.78F
6HR MIN TEMP:  66; 6HR MAX TEMP:  68;

MANITOWOC      MOCLDY    68  66  94 S9        29.81F FOG
APPLETON       FAIR      70  68  94 S9        29.78F
CLINTONVILLE   FAIR      66  64  94 SE5       29.77F FOG
OSHKOSH        FAIR      73  69  87 S14       29.78F
6HR MIN TEMP:  68; 6HR MAX TEMP:  77;

$$

WIZ032>034-041-042-053>061-010700-
SOUTHWEST WISCONSIN

CITY           SKY/WX    TMP DP  RH WIND       PRES   REMARKS
LA CROSSE      RAIN      68  63  84 S15       29.75R
6HR MIN TEMP:  68; 6HR MAX TEMP:  83; 6HR PCP:  0.14;

SPARTA         FAIR      73  58  59 SW12G23   29.75R
VIROQUA        CLOUDY    66  64  96 SW16G25   29.82R
BOSCOBEL       LGT RAIN  69  62  78 SW8       29.81R
6HR MIN TEMP:  69; 6HR MAX TEMP:  83; 6HR PCP: TRACE;

PRAIRIE DU CHI LGT RAIN  66  62  86 W5        29.83F
PLATTEVILLE    FAIR      73  69  87 W18G24    29.86R
$$

WIZ056-057-062-063-064-067-068-010700-
SOUTH CENTRAL WISCONSIN

CITY           SKY/WX    TMP DP  RH WIND       PRES   REMARKS
BARABOO/DELLS  FAIR      74  67  78 S12G20    29.78S
LONE ROCK      NOT AVBL
WATERTOWN      FAIR      71  70  98 S8        29.82R
MADISON        FAIR      76  69  79 S12       29.80S
6HR MIN TEMP:  75; 6HR MAX TEMP:  81;

MIDDLETON      FAIR      75  71  86 S13       29.81S
MONROE         FAIR      73  70  88 SW15      29.83S
JANESVILLE     FAIR      73  70  88 S7        29.82R
$$

WIZ051-052-058>065-066-070>072-010700-
SOUTHEAST WISCONSIN

CITY           SKY/WX    TMP DP  RH WIND       PRES   REMARKS
MILWAUKEE      FAIR      73  68  84 S8        29.83F
6HR MIN TEMP:  73; 6HR MAX TEMP:  77;

WAUKESHA       FAIR      68  64  88 S6        29.84F
MILWAUKEE/TIMM FAIR      72  64  78 S8        29.83F
RACINE         FAIR      74  68  81 S10       29.85F
6HR MIN TEMP:  71; 6HR MAX TEMP:  76;

BURLINGTON     FAIR      68  67  96 S5        29.84F
KENOSHA        FAIR      73  69  87 S9        29.84F
6HR MIN TEMP:  72; 6HR MAX TEMP:  79;

FOND DU LAC    FAIR      73  68  84 S12       29.80S
6HR MIN TEMP:  69; 6HR MAX TEMP:  74;

SHEBOYGAN      FAIR      67  65  93 S6        29.80F
6HR MIN TEMP:  66; 6HR MAX TEMP:  69;

WEST BEND      FAIR      70  64  83 S6        29.81F
JUNEAU         FAIR      72  68  88 S13G20    29.82S
$$

LSZ147-162-010700-
LAKE SUPERIOR

STATION/POSITION TIME  TEMP    WIND        PRES    WAVE
                       AIR SEA DIR/SP/G            HT/PER
                 (UTC) (F)     (DEG/KT/KT) (MB)    (FT/S)
W MID LAKE BUOY  0450   65 58  210/ 29/ 35 1003.3F   2/ 4
DEVILS ISLAND    0500   67     160/ 10/ 14 1003.0S
PORT WING        0540   69     240/  5/  7 1002.7S
SAXON HARBOR     0500   67     190/  2/  6 1003.7
$$

LMZ867-665-643>646-010700-
LAKE MICHIGAN

STATION/POSITION TIME  TEMP    WIND        PRES    WAVE
                       AIR SEA DIR/SP/G            HT/PER
                 (UTC) (F)     (DEG/KT/KT) (MB)    (FT/S)
N MID LAKE BUOY  0450   66 65  160/  8/  8 1010.4R   1
NORTHPORT PIER   0500   66     160/  6/  9 1010.2R
KEWAUNEE LAKESHO 0500   62     170/  5/  7 1009.5R
SHEBOYGAN LAKESH 0500   69 50  170/ 11/ 12 1010.0R
ATWATER BUOY     0500   73     190/ 10/ 14 1011.6S
MILWAUKEE LAKESH 0500   75     210/  8/ 10   N/A
S MID LAKE BUOY  0450   73 70  180/ 12/ 14 1011.4R   1/ 3
KENOSHA   LAKESH 0500   73     180/  9/ 10 1010.5F
$$

TC  - TEMPERATURE IN CELSIUS
VSB - VISIBILITY IN STATUTE MILES
WCI - WIND CHILL INDEX
HX  - HEAT INDEX




USA.gov is the U.S. government's official web portal to all federal, state and local government web resources and services.